Location: Stilling
(56.0622°N, 9.9882°E)
Time: 00:11:41
(UTC+00:00)

Cosmos 1743 Rocket - Pass Details

Date: 13 July 2020
Orbit: 605 x 631 km, 82.6° (Epoch: 03 August)

Event Time Altitude Azimuth Distance (km) Brightness Sun altitude
Exits shadow 22:14:28 15° 161° (SSE) 1,638 5.1 -10.8°
Maximum altitude 22:17:43 44° 94° (E) 854 4.1 -11.0°
Drops below altitude 10° 22:21:54 10° 22° (NNE) 1,991 7.0 -11.1°
Sets 22:24:13 0° 16° (NNE) 2,906 8.1 -11.2°
